Skip Page Navigation
NASA JPL Caltech
NASA Logo - Jet Propulsion Laboratory + View the NASA Portal
+ Center for Near-Earth Object Studies
JPL Home Earth Solar System Stars & Galaxies Technology
JPL Solar System Dynamics
BODIES ORBITS EPHEMERIDES TOOLS PHYSICAL DATA DISCOVERY FAQ SITE MAP
JPL Small-Body Database Browser
Search: [ help ]  
351487 (2005 QE103)
Classification: Main-belt Asteroid          SPK-ID: 2351487
Ephemeris | Orbit Diagram | Orbital Elements | Mission Design | Physical Parameters | Discovery Circumstances | Close-Approach Data ]

[ show orbit diagram ]
Orbital Elements at Epoch 2459000.5 (2020-May-31.0) TDB
Reference: JPL 7 (heliocentric ecliptic J2000)
 Element Value Uncertainty (1-sigma)   Units 
e .04366277999616176 7.1847e-08  
a 3.068992039286275 4.4707e-08 au
q 2.934991315064947 2.2996e-07 au
i 8.983891366738803 9.7253e-06 deg
node 323.4526654834693 4.6561e-05 deg
peri 331.3326855552207 0.00012988 deg
M 315.9686893471765 0.00012527 deg
tp 2459240.687931483485
(2021-Jan-26.18793148)
0.00068446 TDB
period 1963.776550187928
5.38
4.291e-05
1.175e-07
d
yr
n .1833202458627734 4.0057e-09 deg/d
Q 3.202992763507604 4.6659e-08 au
  Orbit Determination Parameters
   # obs. used (total)      96  
   data-arc span      8981 days (24.59 yr)  
   first obs. used      1994-09-01  
   last obs. used      2019-04-04  
   planetary ephem.      DE431  
   SB-pert. ephem.      SB431-N16  
   condition code      0  
   norm. resid. RMS      .59082  
   source      ORB  
   producer      Otto Matic  
   solution date      2019-Jul-14 04:51:59  

Additional Information
 Earth MOID = 1.92292 au 
 Jupiter MOID = 1.99509 au 
 T_jup = 3.211 
[ show covariance matrix ]

Ephemeris | Orbit Diagram | Orbital Elements | Mission Design | Physical Parameters | Discovery Circumstances | Close-Approach Data ]

Physical Parameter Table
Parameter Symbol Value Units Sigma Reference Notes
absolute magnitude H 16.3   n/a MPO471639  

351487 (2005 QE103)          Discovered 2005-Aug-27 by NEAT at Palomar
Reference: 20130127/Numbers.arcLast Updated: 2013-01-31

[ show close-approach data ]
Ephemeris | Orbit Diagram | Orbital Elements | Mission Design | Physical Parameters | Discovery Circumstances | Close-Approach Data ]
ABOUT SSD CREDITS/AWARDS PRIVACY/COPYRIGHT GLOSSARY LINKS
FirstGov 2020-Oct-26 02:15 UT
(server date/time)  
NASA Home Page
Site Manager:   Ryan S. Park
Webmaster  Alan B. Chamberlin